Miscellaneous Local Product
Issued by NWS North Platte, NE

Home | Current Version | Previous Version | Text Only | Print | Product List | Glossary On
Versions: 1 2 3 4 5 6 7 8 9 10 11 12 13 14 15 16 17 18 19 20 21 22 23 24 25 26 27 28 29 30 31 32 33 34 35 36 37 38 39 40 41 42 43 44 45 46 47 48 49 50
000
AXUS43 KLBF 240410
MISLBF


WESTERN AND NORTH CENTRAL NEBRASKA HOURLY WEATHER ROUNDUP
NATIONAL WEATHER SERVICE NORTH PLATTE NE
1100 PM CDT WED APR 23 2014

***STATIONS NOT REPORTING VARIABLES SUCH AS SKY/WEATHER OR
PRESSURE ARE PROVIDED BY THE NEBRASKA DEPARTMENT OF
ROADS...RAWS...AND APRS NETWORKS...AND ARE NOT UNDER
NATIONAL WEATHER SERVICE QUALITY CONTROL***

...OBSERVATIONS IN AND NEAR THE EASTERN PANHANDLE OF NEBRASKA...

CITY           SKY/WX    TMP DP  RH WIND       PRES   REMARKS
PINE RIDGE     CLOUDY    50  36  58 CALM      29.81R
CHADRON        CLOUDY    49  40  71 CALM      29.82R
ALLIANCE       CLOUDY    50  39  66 N10       29.78R
SIDNEY         CLOUDY    54   8  16 NW22G30   29.81R
WHITECLAY        N/A     44  34  65 N6          N/A
CRESCENT LAKE    N/A     52  35  52 N6G13       N/A
LISCO            N/A     56   8  14 W9          N/A
BIG SPRINGS      N/A     53  37  54 NW9         N/A
LEWELLEN         N/A     62  27  26 W14         N/A
$$

...OBSERVATIONS IN SOUTHWEST NEBRASKA AND FAR NORTHEAST COLORADO...

CITY           SKY/WX    TMP DP  RH WIND       PRES   REMARKS
WRAY           MOCLDY    52  30  42 NW29G41   29.78R
HOLYOKE        DRIZZLE   52  36  54 NW32G41   29.82R
IMPERIAL       CLOUDY    53  33  46 N22G33    29.75R
OGALLALA       CLOUDY    57  27  31 NW15G21   29.80R
NORTH PLATTE   CLOUDY    58  42  55 N21G31    29.69R
MCCOOK         MOCLDY    62  28  27 NW28G36   29.64R
LEXINGTON      CLOUDY    62  40  45 N20G29    29.62F
PAXTON           N/A     59  31  35 NW14        N/A
SUTHERLAND       N/A     55  34  45 W15         N/A
GOTHENBURG       N/A     62  45  53 N5G16       N/A
CALLAWAY         N/A     62  46  56 N17         N/A
$$

...OBSERVATIONS IN NORTH CENTRAL NEBRASKA...

CITY           SKY/WX    TMP DP  RH WIND       PRES   REMARKS
VALENTINE      CLOUDY    54  38  54 W25G35    29.76R
THEDFORD       CLOUDY    57  39  52 NW20G28   29.74S
AINSWORTH      CLOUDY    56  40  55 NW22G31   29.72R
O`NEILL        CLOUDY    58  42  54 NW12      29.65R
ORD            LGT RAIN  59  51  75 N15G23    29.61R
BROKEN BOW     LGT RAIN  57  47  69 N23       29.69R
BROWNLEE         N/A     56  41  58 NW21        N/A
SPRINGVIEW       N/A     55  40  58 NW12G21     N/A
DUNNING          N/A     58  41  53 S21         N/A
BREWSTER         N/A     60  42  51 SW12        N/A
ROSE             N/A     59  45  60 W9          N/A
NEWPORT          N/A     57  43  58 SW14        N/A
COMSTOCK         N/A     62  51  66 N20         N/A
CHAMBERS         N/A     59  45  59 N7          N/A
EWING            N/A     54  47  76 E3          N/A
$$

...SOME WEATHER OBSERVATIONS FROM AROUND THE REGION...

CITY           SKY/WX    TMP DP  RH WIND       PRES   REMARKS
DENVER         CLOUDY    44  41  89 E10       29.88R
LARAMIE        MOCLDY    35   5  28 NW24G30   29.93R WCI  23
CHEYENNE       CLOUDY    44   6  21 NW17G29   29.91R
SCOTTSBLUFF    CLOUDY    51  32  48 N15       29.81R
RAPID CITY     MOCLDY    43  31  62 N13       29.78R
PIERRE         MOCLDY    50  37  61 NW7       29.72R
WINNER         FAIR      54  37  52 NW14      29.72R
SIOUX FALLS    CLOUDY    47  39  74 E17G26    29.69F
OMAHA          LGT RAIN  54  44  69 E9        29.68R
GRAND ISLAND   RAIN      58  55  90 E9        29.62F
KANSAS CITY    CLOUDY    70  39  32 SE22      29.71R
WICHITA        CLOUDY    74  51  44 S35G46    29.53F BLWGDUST
HAYS           CLEAR    N/A N/A N/A S38G47    29.45S
LIBERAL        PTCLDY    64  52  63 E29G37    29.57S
GOODLAND       CLOUDY    51  33  50 N31G45    29.75R
$$



USA.gov is the U.S. government's official web portal to all federal, state and local government web resources and services.